Home   Weather   Colchester   Past weeks

Flag for United Kingdom Past Weather in Colchester, England, United Kingdom — Yesterday and Last 2 Weeks

Now
63 °F

Passing clouds.


Feels Like: 63 °F
Forecast: 54 / 65 °F
Wind: 13 mph from Southwest

Location: Cranfield

Current Time: Sep 28, 2016 at 11:28:55 AM

Latest Report: Sep 28, 2016 at 10:50 AM


Visibility: N/A

Pressure: 30.21 "Hg

Humidity: 77%

Dew Point: 55 °F

Location of ColchesterLocation

Past Weather in Colchester — Graph

°F

Colchester Temperature Yesterday

Maximum temperature yesterday: 66 °F (at 2:20 PM)
Minimum temperature yesterday: 59 °F (at 7:20 AM)
Average temperature yesterday: 62 °F

High & Low Weather Summary for the Past Weeks

 TemperatureHumidityPressure
High86 °F (Sep 13, 12:50 PM)100% (Sep 15, 7:20 AM)30.21 "Hg (Sep 15, 7:20 AM)
Low52 °F (Sep 26, 7:50 AM)43% (Sep 13, 1:20 PM)29.77 "Hg (Sep 13, 4:50 PM)
Average65 °F82%30.02 "Hg
* Reported Sep 13 9:20 AM — Sep 28 9:50 AM, Colchester, Weather by CustomWeather, © 2016

Note: Actual official high and low records may vary slightly from our data, if they occured in-between our weather recording intervals... More about our weather records

Advertising

Colchester Weather History for the Previous 24 Hours

Scroll right to see more
 ConditionsComfort  
Time TempWeatherWind HumidityBarometerVisibility
9:50 AM
Wed, Sep 28
61 °FPassing clouds.13 mph88%30.21 "Hg6 mi
9:20 AM59 °FPassing clouds.15 mph94%30.21 "Hg6 mi
8:50 AM57 °FPassing clouds.15 mph94%30.21 "Hg6 mi
8:20 AM55 °FPassing clouds.13 mph100%30.21 "Hg5 mi
7:50 AM55 °FPassing clouds.13 mph94%30.21 "Hg4 mi
5:20 PM
Tue, Sep 27
66 °FPartly sunny.13 mph83%30.15 "HgN/A
4:50 PM66 °FPartly sunny.13 mph88%30.15 "HgN/A
4:20 PM66 °FScattered clouds.14 mph88%30.15 "HgN/A
3:50 PM64 °FPartly sunny.15 mph94%30.15 "HgN/A
3:20 PM64 °FPartly sunny.15 mph88%30.15 "HgN/A
2:50 PM64 °FPartly sunny.16 mph88%30.15 "HgN/A
2:20 PM66 °FOvercast.14 mph88%30.12 "HgN/A
1:50 PM64 °FOvercast.17 mph88%30.15 "HgN/A
1:20 PM63 °FOvercast.15 mph88%30.15 "HgN/A
12:50 PM63 °FOvercast.14 mph88%30.15 "HgN/A
12:20 PM61 °FPartly sunny.15 mph88%30.15 "HgN/A
11:50 AM63 °FPartly sunny.15 mph88%30.15 "HgN/A
11:20 AM61 °FPartly sunny.15 mph88%30.15 "HgN/A
Weather by CustomWeather, © 2016

See weather overviewHow to use our weather pages